• In Netherlands
  • List of Countries
  • For 7 days
  • Water Temperature
  • Satellite Maps
  • Weather Map
  • Weather Widgets
  • user-avatar
    Login

    Hourly Weather Jambol

    Today, 24 June, Saturday

    Time Temperature Precipitation Wind Pressure Humidity
    00:00 +24°C° 0.2 mm 2 mps 748 mmHg 56%
    01:00 +24°C° 0.2 mm 2 mps 748 mmHg 57%
    02:00 +24°C° 0 mm 3 mps 747 mmHg 59%
    03:00 +24°C° 0 mm 3 mps 747 mmHg 63%
    04:00 +23°C° 0 mm 2 mps 747 mmHg 66%
    05:00 +21°C° 0 mm 2 mps 748 mmHg 70%
    06:00 +24°C° 0 mm 3 mps 748 mmHg 66%
    07:00 +27°C° 0 mm 3 mps 748 mmHg 61%
    08:00 +29°C° 0 mm 3 mps 749 mmHg 54%
    09:00 +30°C° 0 mm 4 mps 749 mmHg 50%
    10:00 +32°C° 0 mm 4 mps 749 mmHg 46%
    11:00 +33°C° 0 mm 4 mps 749 mmHg 42%
    12:00 +34°C° 0 mm 4 mps 749 mmHg 41%
    13:00 +34°C° 0 mm 4 mps 749 mmHg 39%
    14:00 +35°C° 0 mm 4 mps 749 mmHg 38%
    15:00 +34°C° 0 mm 3 mps 749 mmHg 40%
    16:00 +34°C° 0 mm 3 mps 748 mmHg 41%
    17:00 +34°C° 0 mm 3 mps 748 mmHg 42%
    18:00 +30°C° 0.1 mm 2 mps 748 mmHg 50%
    19:00 +28°C° 0.1 mm 2 mps 748 mmHg 58%
    20:00 +26°C° 0.1 mm 2 mps 748 mmHg 66%
    21:00 +25°C° 0 mm 2 mps 749 mmHg 68%
    22:00 +24°C° 0 mm 2 mps 749 mmHg 70%
    23:00 +23°C° 0 mm 2 mps 750 mmHg 72%

    Tomorrow, 25 June, Sunday

    Time Temperature Precipitation Wind Pressure Humidity
    00:00 +23°C° 0 mm 2 mps 750 mmHg 74%
    01:00 +23°C° 0 mm 1 mps 750 mmHg 76%
    02:00 +22°C° 0 mm 1 mps 750 mmHg 77%
    03:00 +22°C° 0 mm 1 mps 750 mmHg 78%
    04:00 +22°C° 0 mm 1 mps 750 mmHg 79%
    05:00 +21°C° 0 mm 1 mps 750 mmHg 79%
    06:00 +24°C° 0 mm 1 mps 750 mmHg 71%
    07:00 +26°C° 0 mm 1 mps 750 mmHg 62%
    08:00 +28°C° 0 mm 1 mps 750 mmHg 53%
    09:00 +30°C° 0 mm 1 mps 750 mmHg 49%
    10:00 +31°C° 0 mm 1 mps 750 mmHg 45%
    11:00 +32°C° 0 mm 1 mps 750 mmHg 41%
    12:00 +34°C° 0 mm 2 mps 750 mmHg 40%
    13:00 +35°C° 0 mm 2 mps 750 mmHg 38%
    14:00 +35°C° 0 mm 2 mps 749 mmHg 37%
    15:00 +35°C° 0 mm 2 mps 749 mmHg 38%
    16:00 +35°C° 0 mm 3 mps 749 mmHg 39%
    17:00 +35°C° 0 mm 3 mps 749 mmHg 40%
    18:00 +31°C° 0 mm 3 mps 749 mmHg 46%
    19:00 +29°C° 0 mm 3 mps 749 mmHg 52%
    20:00 +27°C° 0 mm 3 mps 748 mmHg 59%
    21:00 +25°C° 0 mm 3 mps 749 mmHg 62%
    22:00 +24°C° 0 mm 2 mps 749 mmHg 65%
    23:00 +23°C° 0 mm 2 mps 749 mmHg 69%

    Day after tomorrow, 26 June, Monday

    Time Temperature Precipitation Wind Pressure Humidity
    00:00 +21°C° 0 mm 2 mps 749 mmHg 71%
    01:00 +22°C° 0 mm 1 mps 749 mmHg 73%
    02:00 +21°C° 0 mm 1 mps 748 mmHg 75%
    03:00 +21°C° 0 mm 1 mps 748 mmHg 76%
    04:00 +20°C° 0 mm 1 mps 748 mmHg 77%
    05:00 +20°C° 0 mm 1 mps 748 mmHg 78%
    06:00 +23°C° 0 mm 1 mps 748 mmHg 69%
    07:00 +25°C° 0 mm 1 mps 748 mmHg 61%
    08:00 +28°C° 0 mm 1 mps 748 mmHg 52%
    09:00 +29°C° 0 mm 1 mps 748 mmHg 47%
    10:00 +31°C° 0 mm 1 mps 748 mmHg 43%
    11:00 +32°C° 0 mm 2 mps 748 mmHg 38%
    12:00 +34°C° 0 mm 2 mps 748 mmHg 36%
    13:00 +35°C° 0 mm 2 mps 747 mmHg 35%
    14:00 +36°C° 0 mm 2 mps 747 mmHg 33%
    15:00 +35°C° 0 mm 2 mps 747 mmHg 35%
    16:00 +35°C° 0 mm 3 mps 746 mmHg 37%
    17:00 +34°C° 0 mm 3 mps 746 mmHg 38%
    18:00 +31°C° 0 mm 3 mps 746 mmHg 46%
    19:00 +28°C° 0 mm 3 mps 746 mmHg 54%
    20:00 +26°C° 0 mm 3 mps 747 mmHg 62%
    21:00 +24°C° 0 mm 2 mps 747 mmHg 65%
    22:00 +23°C° 0 mm 2 mps 747 mmHg 69%
    23:00 +22°C° 0 mm 1 mps 747 mmHg 72%

    27 June, Tuesday

    Time Temperature Precipitation Wind Pressure Humidity
    00:00 +21°C° 0 mm 1 mps 747 mmHg 73%
    01:00 +21°C° 0 mm 1 mps 747 mmHg 74%
    02:00 +20°C° 0 mm 1 mps 747 mmHg 75%
    03:00 +20°C° 0 mm 1 mps 747 mmHg 75%
    04:00 +18°C° 0 mm 0 mps 747 mmHg 76%
    05:00 +18°C° 0 mm 0 mps 748 mmHg 76%
    06:00 +21°C° 0 mm 0 mps 748 mmHg 67%
    07:00 +26°C° 0 mm 1 mps 748 mmHg 58%
    08:00 +29°C° 0 mm 1 mps 749 mmHg 49%
    09:00 +30°C° 0 mm 1 mps 749 mmHg 46%
    10:00 +32°C° 0 mm 2 mps 749 mmHg 43%
    11:00 +35°C° 0 mm 2 mps 749 mmHg 39%
    12:00 +35°C° 0 mm 2 mps 748 mmHg 37%
    13:00 +36°C° 0 mm 2 mps 748 mmHg 34%
    14:00 +36°C° 0 mm 3 mps 748 mmHg 32%
    15:00 +36°C° 0 mm 3 mps 748 mmHg 33%
    16:00 +36°C° 0 mm 3 mps 748 mmHg 34%
    17:00 +35°C° 0 mm 3 mps 747 mmHg 34%
    18:00 +31°C° 0 mm 3 mps 748 mmHg 41%
    19:00 +29°C° 0 mm 3 mps 748 mmHg 48%
    20:00 +26°C° 0 mm 3 mps 748 mmHg 54%
    21:00 +25°C° 0 mm 2 mps 748 mmHg 59%
    22:00 +24°C° 0 mm 2 mps 748 mmHg 63%
    23:00 +21°C° 0 mm 2 mps 748 mmHg 68%

    28 June, Wednesday

    Time Temperature Precipitation Wind Pressure Humidity
    00:00 +22°C° 0 mm 1 mps 748 mmHg 69%
    01:00 +21°C° 0 mm 1 mps 748 mmHg 71%
    02:00 +20°C° 0 mm 1 mps 748 mmHg 73%
    03:00 +20°C° 0 mm 1 mps 748 mmHg 74%
    04:00 +20°C° 0 mm 1 mps 748 mmHg 75%
    05:00 +20°C° 0 mm 1 mps 748 mmHg 76%
    06:00 +23°C° 0 mm 1 mps 748 mmHg 67%
    07:00 +25°C° 0 mm 1 mps 748 mmHg 58%
    08:00 +28°C° 0 mm 1 mps 749 mmHg 49%
    09:00 +30°C° 0 mm 1 mps 749 mmHg 44%
    10:00 +31°C° 0 mm 1 mps 749 mmHg 40%
    11:00 +33°C° 0 mm 1 mps 749 mmHg 35%
    12:00 +35°C° 0 mm 2 mps 748 mmHg 33%
    13:00 +36°C° 0 mm 2 mps 748 mmHg 31%
    14:00 +37°C° 0 mm 2 mps 748 mmHg 30%
    15:00 +36°C° 0 mm 3 mps 748 mmHg 32%
    16:00 +35°C° 0 mm 3 mps 748 mmHg 33%
    17:00 +35°C° 0 mm 4 mps 747 mmHg 35%
    18:00 +31°C° 0 mm 3 mps 748 mmHg 44%
    19:00 +28°C° 0 mm 3 mps 748 mmHg 54%
    20:00 +26°C° 0 mm 3 mps 748 mmHg 63%
    21:00 +24°C° 0 mm 3 mps 748 mmHg 67%
    22:00 +23°C° 0 mm 2 mps 748 mmHg 72%
    23:00 +21°C° 0 mm 2 mps 749 mmHg 77%

    29 June, Thursday

    Time Temperature Precipitation Wind Pressure Humidity
    00:00 +22°C° 0 mm 1 mps 749 mmHg 78%
    01:00 +21°C° 0 mm 1 mps 748 mmHg 78%
    02:00 +21°C° 0 mm 1 mps 748 mmHg 79%
    03:00 +20°C° 0 mm 1 mps 748 mmHg 79%
    04:00 +20°C° 0 mm 1 mps 748 mmHg 80%
    05:00 +20°C° 0 mm 1 mps 749 mmHg 80%
    06:00 +23°C° 0 mm 1 mps 749 mmHg 70%
    07:00 +25°C° 0 mm 1 mps 749 mmHg 60%
    08:00 +28°C° 0 mm 1 mps 749 mmHg 51%
    09:00 +30°C° 0 mm 1 mps 749 mmHg 45%
    10:00 +32°C° 0 mm 1 mps 749 mmHg 40%
    11:00 +34°C° 0 mm 1 mps 749 mmHg 34%
    12:00 +36°C° 0 mm 2 mps 749 mmHg 33%
    13:00 +37°C° 0 mm 2 mps 749 mmHg 31%
    14:00 +37°C° 0 mm 3 mps 749 mmHg 30%
    15:00 +37°C° 0 mm 3 mps 749 mmHg 32%
    16:00 +37°C° 0 mm 4 mps 748 mmHg 33%
    17:00 +36°C° 0 mm 4 mps 748 mmHg 35%
    18:00 +33°C° 0 mm 4 mps 748 mmHg 44%
    19:00 +29°C° 0 mm 3 mps 749 mmHg 52%
    20:00 +27°C° 0 mm 3 mps 749 mmHg 60%
    21:00 +25°C° 0 mm 3 mps 749 mmHg 66%
    22:00 +24°C° 0 mm 2 mps 749 mmHg 72%
    23:00 +21°C° 0 mm 2 mps 749 mmHg 78%
    Show more